Hourly Data Report for October 21, 2015

All times are specified in Local Standard Time (LST). Add 1 hour to adjust for Daylight Saving Time where and when it is observed.

OTTAWA INTL A
ONTARIO

45°19'00.000" N
75°40'00.000" W
114.90 m
6106001
71628
YOW

Download Data

Hourly Data (October 2015)
Hourly Data Report for October 21, 2015
Temp Definition
°C
Dew Point Temp Definition
°C
Rel Hum Definition
%
Wind Dir Definition
10's deg

Wind Spd Definition
km/h
Visibility Definition
km
Stn Press Definition
kPa
Hmdx Definition


Wind Chill Definition


Weather Definition


TIME
00:00 Legend Double Dagger 7.4 -7.1 35 3 16 24.1 101.07     LegendNANA
01:00 Legend Double Dagger 6.9 -6.5 38 2 12 24.1 101.13     Cloudy
02:00 Legend Double Dagger 6.2 -7.1 38 2 14 24.1 101.16     LegendNANA
03:00 Legend Double Dagger 5.3 -6.3 43 3 14 24.1 101.18     LegendNANA
04:00 Legend Double Dagger 4.1 -6.0 48 1 12 24.1 101.22     Mostly Cloudy
05:00 Legend Double Dagger 3.4 -5.3 53 1 9 24.1 101.30     LegendNANA
06:00 Legend Double Dagger 3.1 -5.3 54 2 13 24.1 101.36     LegendNANA
07:00 Legend Double Dagger 2.8 -4.9 57 2 11 24.1 101.40     Mostly Cloudy
08:00 Legend Double Dagger 3.4 -5.0 54 4 14 24.1 101.45     LegendNANA
09:00 Legend Double Dagger 4.2 -4.3 54 3 15 24.1 101.47     LegendNANA
10:00 Legend Double Dagger 5.5 -4.4 49 5 10 24.1 101.48     Mostly Cloudy
11:00 Legend Double Dagger 6.9 -3.9 46 7 13 24.1 101.43     LegendNANA
12:00 Legend Double Dagger 9.3 -5.0 36 7 10 24.1 101.33     LegendNANA
13:00 Legend Double Dagger 10.8 -5.2 32 10 9 24.1 101.24     Mostly Cloudy
14:00 Legend Double Dagger 10.9 -3.9 35 13 12 24.1 101.17     LegendNANA
15:00 Legend Double Dagger 10.4 -2.9 39 11 14 24.1 101.13     LegendNANA
16:00 Legend Double Dagger 10.1 -1.6 44 10 11 24.1 101.07     Mostly Cloudy
17:00 Legend Double Dagger 8.7 0.2 55 10 13 24.1 101.07     Rain Showers
18:00 Legend Double Dagger 7.3 1.4 66 9 14 24.1 101.01     LegendNANA
19:00 Legend Double Dagger 7.2 0.9 64 8 15 24.1 100.97     Cloudy
20:00 Legend Double Dagger 6.4 -0.1 63 7 12 24.1 100.88     LegendNANA
21:00 Legend Double Dagger 6.4 -0.1 63 7 14 24.1 100.79     LegendNANA
22:00 Legend Double Dagger 6.2 0.1 65 9 14 24.1 100.66     Cloudy
23:00 Legend Double Dagger 6.4 -0.3 62 8 15 24.1 100.54     LegendNANA

Notes on Data Quality.

Legend

  • E = Estimated
  • M = Missing
  • NA = Not Available
  • ‡ = Partner data that is not subject to review by the National Climate Archives
Date modified: